Weather History for Charleston, WV

Change the Weather History Date:

Sunday, May 5, 2013

  Actual Average Record
Temperature  
Mean Temperature 62 °F 61 °F  
Max Temperature 74 °F 73 °F 94 °F (1932)
Min Temperature 50 °F 50 °F 32 °F (1907)
Degree Days  
Heating Degree Days 3 5  
Month to date heating degree days 8 28  
Since 1 July heating degree days 4424 4376  
Cooling Degree Days 0 1  
Month to date cooling degree days 6 5  
Year to date cooling degree days 45 37  
Growing Degree Days 12 (Base 50)    
Moisture  
Dew Point 38 °F    
Average Humidity 45    
Maximum Humidity 72    
Minimum Humidity 17    
Precipitation  
Precipitation 0.01 in 0.15 in 1.32 in (2012)
Month to date precipitation 0.01 0.70  
Year to date precipitation 10.88 14.04  
Snow  
Snow 0.00 in - - ()
Month to date snowfall 0.0  
Since 1 September snowfall 25.3  
Snow Depth 0.00 in    
Sea Level Pressure  
Sea Level Pressure 29.97 in    
Wind  
Wind Speed 9 mph (East)    
Max Wind Speed 23 mph    
Max Gust Speed 33 mph    
Visibility 10 miles    
Events Rain    
T = Trace of Precipitation, MM = Missing Value Source: NWS Daily Summary

Daily Weather History Graph

Daily Weather History Graph

Search for Another Location

Airport:

Trip Planner

Search our weather history database for the weather conditions in past years. The results will help you decide how hot, cold, wet, or windy it might be!

Date:

Astronomy

May. 05, 2013 Rise Set
Actual Time 6:24 AM EDT 8:21 PM EDT
Civil Twilight 5:55 AM EDT 8:50 PM EDT
Nautical Twilight 5:20 AM EDT 9:26 PM EDT
Astronomical Twilight 4:42 AM EDT 10:04 PM EDT
Moon 3:51 AM EDT (5/5) 4:23 PM EDT (5/5)
Length of Visible Light 14h 55m
Length of Day
13h 57m
Waning Crescent, 18% of the Moon is Illuminated
May 5
Waning Crescent
May 9
New
May 18
First Quarter
May 25
Full
May 31
Last Quarter

Hourly Weather History & Observations

Time (EDT) Temp. Dew Point Humidity Pressure Visibility Wind Dir Wind Speed Gust Speed Precip Events Conditions
12:54 AM 57.0 °F 39.9 °F 53% 30.06 in 10.0 mi ESE 4.6 mph - N/A   Clear
1:54 AM 55.0 °F 39.9 °F 57% 30.04 in 10.0 mi ENE 3.5 mph - N/A   Clear
2:54 AM 53.1 °F 42.1 °F 66% 30.01 in 10.0 mi ENE 4.6 mph - N/A   Clear
3:54 AM 53.1 °F 41.0 °F 64% 30.01 in 10.0 mi ENE 4.6 mph - N/A   Clear
4:54 AM 51.1 °F 42.1 °F 71% 30.00 in 10.0 mi NE 6.9 mph - N/A   Clear
5:54 AM 50.0 °F 41.0 °F 71% 29.98 in 10.0 mi NE 5.8 mph - N/A   Partly Cloudy
6:54 AM 50.0 °F 39.0 °F 66% 29.98 in 10.0 mi NE 5.8 mph - N/A   Partly Cloudy
7:54 AM 55.0 °F 32.0 °F 42% 29.99 in 10.0 mi Calm Calm - N/A   Partly Cloudy
8:54 AM 57.9 °F 27.0 °F 31% 29.98 in 10.0 mi East 8.1 mph - N/A   Partly Cloudy
9:54 AM 60.1 °F 21.9 °F 23% 29.97 in 10.0 mi East 8.1 mph - N/A   Partly Cloudy
10:54 AM 64.0 °F 21.0 °F 19% 29.96 in 10.0 mi East 12.7 mph 20.7 mph N/A   Clear
11:54 AM 69.1 °F 25.0 °F 19% 29.96 in 10.0 mi East 4.6 mph - N/A   Clear
12:54 PM 73.0 °F 26.1 °F 17% 29.94 in 10.0 mi East 11.5 mph 24.2 mph N/A   Clear
1:54 PM 73.4 °F 26.6 °F 18% 29.95 in 10.0 mi ESE 15.0 mph 20.7 mph N/A   Clear
2:54 PM 72.0 °F 30.9 °F 22% 29.94 in 10.0 mi SE 18.4 mph 27.6 mph N/A   Clear
3:54 PM 71.1 °F 37.9 °F 30% 29.93 in 10.0 mi East 15.0 mph 24.2 mph N/A   Mostly Cloudy
4:54 PM 69.1 °F 43.0 °F 39% 29.93 in 10.0 mi ESE 16.1 mph 24.2 mph N/A   Mostly Cloudy
5:54 PM 68.0 °F 44.1 °F 42% 29.92 in 10.0 mi ESE 17.3 mph 26.5 mph N/A   Mostly Cloudy
6:54 PM 66.9 °F 45.0 °F 45% 29.92 in 10.0 mi ESE 11.5 mph 18.4 mph 0.00 in Rain Light Rain
7:54 PM 64.4 °F 44.6 °F 49% 29.95 in 10.0 mi ESE 11.5 mph 18.4 mph N/A   Mostly Cloudy
8:54 PM 62.1 °F 48.0 °F 60% 29.94 in 10.0 mi ESE 6.9 mph - 0.00 in Rain Light Rain
9:54 PM 60.1 °F 51.1 °F 72% 29.95 in 10.0 mi Calm Calm - 0.01 in Rain Light Rain
10:54 PM 60.1 °F 48.9 °F 67% 29.93 in 10.0 mi East 8.1 mph - 0.00 in   Overcast
11:54 PM 57.9 °F 48.0 °F 70% 29.92 in 10.0 mi East 6.9 mph - N/A   Mostly Cloudy